SCP
0 -0 -0 -0 -0 -0 -0 0 0 0 0 0 0 0 0 0 0 0 0 0 0 0 0 0 0 0 0 0 0 0 0 0 0 0 0 0 0 0 0 0 0 0 0
-0 0 -0 0 0 0 0 0 0 0 0 0 0 0 0 0 0 0 0 0 0 0 0 0 0 0 0 0 0 0 0 0 0 0 0 0 0 0 0 0 0 0 0
0 0 0 0 0 0 0 0 0 0 0 0 0 0 0 0 0 0 0 0 0 0 0 0 0 0 0 0 0 0 0 0 0 0 0 0 0 0 0 0 0 0 0
0 0 0 0 0 0 0 0 0 0 0 0 0 0 0 0 0 0 0 0 0 0 0 0 0 0 0 0 0 0 0 0 0 0 0 0 0 0 0 0 0 0 0
0 0 0 0 0 0 0 0 0 0 0 0 0 0 0 0 0 0 0 0 0 0 0 0 0 0 0 0 0 0 0 0 0 0 0 0 0 0 0 0 0 0 0
0 0 0 0 0 0 0 0 0 0 0 0 0 0 0 0 0 0 0 0 0 0 0 0 0 0 0 0 0 0 0 0 0 0 0 0 0 0 0 0 0 0 0
0 0 0 0 0 0 0 0 0 0 0 0 0 0 0 0 0 0 0 0 0 0 0 0 0 0 0 0 0 0 0 0 0 0 0 0 0 0 0 0 0 0 0
0 0 0 0 0 0 0 0 0 0 0 0 0 0 0 0 0 0 0 0 0 0 0 0 0 0 0 0 0 0 0 0 0 0 0 0 0 0 0 0 0 0 0
0 0 0 0 0 0 0 0 0 0 0 0 0 0 0 0 0 0 0 0 0 0 0 0 0 0 0 0 0 0 0 0 0 0 0 0 0 0 0 0 0 0 0
0 0 0 0 0 0 0 0 0 0 0 0 0 0 0 0 0 0 0 0 0 0 0 0 0 0 0 0 0 0 0 0 0 0 0 0 0 0 0 0 0 0 0
0 0 0 0 0 0 0 0 0 0 0 0 0 0 0 0 0 0 0 0 0 0 0 0 0 0 0 0 0 0 0 0 0 0 0 0 0 0 0 0 0 0 0
0 0 0 0 0 0 0 0 0 0 0 0 0 0 0 0 0 0 0 0 0 0 0 0 0 0 0 0 0 0 0 0 0 0 0 0 0 0 0 0 0 0 0
0 0 0 0 0 0 0 0 0 0 0 0 0 0 0 0 0 0 0 0 0 0 0 0 0 0 0 0 0 0 0 0 0 0 0 0 0 0 0 0 0 0 0
0 0 0 0 0 0 0 0 0 0 0 0 0 0 0 0 0 0 0 0 0 0 0 0 0 0 0 0 0 0 0 0 0 0 0 0 0 0 0 0 0 0 0
0 0 0 0 0 0 0 0 0 0 0 0 0 0 0 0 0 0 0 0 0 0 0 0 0 0 0 0 0 0 0 0 0 0 0 0 0 0 0 0 0 0 0
0 0 0 0 0 0 0 0 0 0 -0 -0 -0 0 0 0 0 0 0 0 0 0 0 0 0 0 0 0 0 0 0 0 0 0 0 0 0 0 0 0 0 0 0
0 0 0 0 0 0 0 0 -0 0 0 0 0 0 0 0 0 0 0 -0 -0 0 0 0 0 0 0 0 0 0 0 0 0 0 0 0 0 0 0 0 0 0 0
0 0 0 0 0 0 0 0 0 0 0 0 0 0 0 0 0 0 0 0 0 0 0 0 0 0 0 0 0 0 0 0 0 -0 0 0 0 0 0 0 0 0 0
0 0 0 0 0 0 0 0 0 0 0 0 0 0 0 0 0 0 0 0 0 0 0 0 0 0 0 0 0 0 0 0 -0 -0 0 0 0 0 0 0 0 0 0
0 0 0 0 0 0 0 0 0 0 0 0 0 0 0 0 0 0 0 0 0 0 0 0 0 0 0 0 0 0 0 0 0 0 0 0 0 0 0 0 0 0 0
0 0 0 0 0 0 0 0 0 0 0 0 0 0 -0 0 0 0 0 0 0 0 0 0 0 0 0 0 0 -0 0 0 0 0 0 0 0 0 0 0 0 0 0
0 0 0 0 0 0 0 0 0 0 0 0 0 0 0 0 0 0 0 0 0 0 0 0 0 0 0 0 0 0 0 0 0 0 0 0 0 0 0 0 0 0 0
0 0 0 0 0 0 0 0 0 0 0 0 0 0 0 0 0 0 0 0 0 0 0 0 0 0 0 0 0 0 0 0 0 0 0 0 0 0 0 0 0 0 0
0 0 0 0 0 0 0 0 0 0 0 0 0 0 0 0 0 0 0 0 0 0 0 0 0 0 0 0 0 0 0 0 0 0 0 0 0 0 0 0 0 0 0
0 0 0 0 0 0 0 0 0 0 0 0 0 0 0 0 0 0 0 0 0 0 0 0 0 0 0 -0 0 0 0 -0 -0 -0 -0 -0 -0 0 0 0 0 0 0
0 0 0 0 0 0 0 0 0 0 0 0 0 0 0 0 0 0 0 -0 -0 -0 0 0 0 -0 -0 0 -0 -0 -0 -0 -0 -0 -0 -0 0 0 0 -0 -0 0 0
Wind_Speed_500mb
32 36 39 41 43 44 45 45 46 48 50 52 55 58 60 64 68 74 75 76 78 78 74 71 72 67 69 70 69 68 67 67 85 92 94 96 98 95 90 88 88 91 91
37 42 47 51 54 58 61 63 66 71 71 73 74 75 74 73 72 74 79 82 88 90 90 86 84 78 77 75 73 74 74 71 76 90 84 87 95 92 90 90 89 91 97
40 44 48 51 56 60 66 70 74 79 83 86 88 90 90 90 93 93 92 91 90 92 95 100 102 96 91 86 81 79 76 77 79 84 92 81 84 86 86 86 90 91 92
37 42 48 55 61 65 72 80 86 90 95 98 101 103 104 106 107 107 108 109 109 105 100 99 103 107 110 102 93 88 83 82 82 87 92 89 81 81 80 84 89 92 96
44 48 56 62 66 71 77 85 91 94 99 104 108 111 113 114 116 103 94 92 99 107 114 115 113 111 110 111 106 104 95 92 91 92 95 93 84 68 78 79 82 85 98
45 51 62 67 73 79 83 88 94 98 101 105 109 111 115 114 114 86 79 83 88 90 99 107 106 107 117 116 113 89 75 80 83 83 92 96 100 83 72 72 77 81 93
54 64 67 70 76 82 87 93 99 103 108 111 112 112 115 115 111 102 83 83 93 103 104 98 98 100 97 95 94 87 85 83 82 87 88 93 100 100 83 73 76 83 93
59 62 67 75 82 88 94 99 103 106 108 111 113 111 111 109 97 84 75 78 88 99 105 107 99 97 92 93 95 97 101 108 106 95 95 111 112 112 99 95 84 84 91
61 68 74 79 86 90 94 100 104 109 109 109 105 101 95 93 82 76 69 73 80 85 87 89 89 96 98 97 92 93 98 111 111 102 98 101 105 102 93 86 81 77 84
65 70 75 80 84 90 95 100 102 103 103 98 92 85 80 81 72 67 59 66 76 79 79 78 75 74 73 73 83 100 107 112 103 106 114 108 102 102 100 96 93 86 82
68 72 76 77 83 87 94 95 95 92 89 87 86 81 77 72 67 61 55 60 70 79 84 84 79 74 73 72 73 85 93 89 88 91 98 98 97 98 100 103 107 98 91
68 72 73 76 79 83 87 87 82 80 82 83 83 83 78 73 72 68 58 59 63 74 86 89 87 74 73 74 75 80 83 86 99 102 93 84 90 97 95 88 95 102 102
68 70 73 77 79 79 79 79 78 75 77 79 81 82 87 89 87 79 69 69 67 74 83 87 82 87 87 88 87 90 91 91 94 91 87 100 101 86 93 90 90 83 81
65 66 70 75 77 73 71 71 74 73 75 76 81 93 94 84 80 79 82 87 86 85 93 99 100 93 82 87 89 89 88 88 89 92 91 98 93 108 86 86 81 80 80
61 65 68 70 70 70 67 69 70 67 62 70 77 81 87 86 84 74 79 83 86 87 86 91 91 86 88 91 92 89 87 87 83 82 80 84 100 98 96 75 74 81 80
57 60 63 66 65 65 71 73 62 62 58 58 59 60 68 71 71 74 76 74 76 78 85 88 89 88 89 88 86 84 78 79 80 78 79 89 96 93 65 70 69 73 81
54 56 57 58 59 63 67 72 78 66 59 54 50 54 57 62 64 66 67 69 68 64 68 74 78 81 83 83 82 78 77 76 73 67 64 67 54 64 67 62 71 74 83
48 49 52 53 53 56 62 65 63 64 69 68 61 59 56 57 62 61 60 57 59 54 61 67 73 75 76 78 77 77 70 62 63 60 62 68 64 52 49 60 69 75 74
45 46 48 49 47 48 55 57 56 57 59 62 65 64 59 72 64 52 48 51 59 62 64 67 66 66 69 68 59 57 53 48 51 55 56 55 55 56 58 58 68 82 79
40 42 44 44 42 43 47 49 50 52 54 58 61 62 69 73 61 61 59 57 57 58 60 63 63 61 59 58 59 54 49 44 41 46 55 59 56 53 57 56 59 69 72
38 37 37 37 36 37 41 43 45 48 51 54 55 56 49 56 64 65 64 61 58 58 58 57 58 58 57 53 47 42 38 39 36 39 42 47 50 52 49 52 55 60 64
34 33 32 33 32 32 36 37 39 42 45 49 52 51 52 55 59 62 63 63 60 56 54 54 55 56 54 51 46 40 37 32 26 22 20 20 21 24 30 36 41 47 49
32 30 28 28 29 29 31 32 35 38 41 43 47 50 52 54 55 57 58 59 60 60 59 57 59 61 55 48 42 39 37 34 30 25 20 12 4 6 14 22 29 34 35
33 31 28 27 28 28 31 32 33 35 38 41 43 45 48 50 50 50 51 54 55 56 57 59 60 60 62 61 48 42 38 33 27 24 19 12 8 8 12 17 23 26 31
34 32 30 30 29 30 31 31 33 35 36 39 41 42 43 45 47 48 48 49 50 52 54 55 56 57 59 59 62 53 43 38 33 27 22 18 18 17 19 23 26 29 32
34 34 33 32 32 33 36 35 34 35 37 38 39 39 41 43 43 44 45 47 48 49 49 49 50 51 54 57 54 54 54 48 41 36 31 28 28 28 28 29 30 33 35
Wind_Direction_500mb
350 348 345 340 336 333 329 324 320 316 314 313 312 310 309 307 307 307 306 305 303 302 301 299 296 295 293 290 290 289 286 281 277 279 280 282 280 279 276 272 266 261 257
334 332 331 330 328 326 324 322 321 319 317 316 314 312 309 306 303 301 299 298 298 297 298 295 293 291 287 285 284 284 285 284 283 284 283 282 281 282 279 275 270 264 260
313 312 311 313 311 309 309 310 310 310 309 309 308 306 305 303 301 299 297 294 291 290 289 289 290 289 286 282 280 279 279 281 281 283 284 283 281 281 280 275 272 269 263
289 292 296 301 300 298 299 302 303 304 304 304 304 303 302 301 300 299 298 296 295 291 285 281 280 281 284 284 281 278 276 276 277 279 282 283 281 280 278 276 276 271 268
294 296 299 299 295 293 292 294 296 297 298 299 299 299 299 299 299 300 300 298 295 293 292 288 282 278 275 278 283 282 281 277 273 273 276 280 279 271 270 278 276 277 275
283 291 298 296 295 296 297 297 298 299 298 298 297 297 296 295 294 292 288 285 285 285 285 285 284 284 282 279 276 275 270 272 272 272 272 271 273 272 271 271 273 271 270
290 296 299 301 301 303 304 305 306 305 304 303 301 300 298 297 296 295 292 284 276 272 274 277 280 278 278 279 278 275 272 265 260 263 265 265 269 270 272 269 267 266 269
297 302 305 307 309 310 311 311 310 308 306 305 303 302 301 300 302 299 296 288 280 274 270 271 275 275 276 276 276 275 274 277 274 267 263 263 264 268 266 269 269 267 269
306 309 312 313 313 314 314 313 312 310 308 307 306 307 306 305 307 304 300 293 289 287 287 287 283 278 276 272 273 272 271 272 272 271 267 263 262 264 261 263 259 255 256
310 313 316 317 317 317 317 315 313 311 309 309 309 310 310 309 311 308 301 297 296 297 296 293 290 287 287 282 274 272 272 272 274 274 276 272 262 258 258 253 250 247 251
314 317 318 318 318 318 317 316 315 314 312 312 313 314 314 317 320 318 304 298 295 296 297 296 293 290 286 283 278 274 274 277 278 274 270 266 264 262 257 255 250 243 243
316 318 318 319 320 320 320 322 320 317 315 316 316 317 320 324 325 322 305 300 298 295 293 292 295 294 289 285 281 277 276 275 271 270 275 270 259 255 252 248 248 249 245
317 318 320 320 324 326 328 326 321 321 319 318 319 321 324 326 325 323 308 307 298 294 295 297 294 293 291 286 281 279 275 274 277 275 268 265 268 267 255 248 245 247 244
316 319 321 324 326 331 332 325 322 325 322 321 323 322 319 315 311 310 313 315 313 308 304 301 302 297 286 285 282 276 273 271 271 272 267 262 266 261 258 240 239 244 240
317 321 323 326 330 333 331 328 327 329 319 313 309 309 310 309 311 313 311 309 308 305 304 299 296 293 290 287 284 280 277 270 264 267 267 269 255 262 251 237 241 243 240
316 319 325 329 333 334 331 330 333 331 322 311 309 308 310 309 312 313 310 309 308 307 304 299 296 292 288 284 280 276 268 261 262 265 268 264 273 240 236 234 243 248 244
316 324 328 330 333 334 335 334 334 343 343 341 332 321 320 316 316 319 318 314 309 310 305 307 307 304 296 290 283 278 271 264 266 265 266 274 277 242 241 253 255 249 229
318 325 328 330 334 338 338 338 339 342 345 349 351 345 336 331 327 326 323 323 324 332 333 328 326 322 318 307 297 285 278 271 270 266 272 273 279 276 260 260 247 238 235
317 324 327 329 336 338 340 342 345 349 348 349 353 356 357 353 339 341 348 346 345 345 345 342 342 340 342 331 321 310 300 281 266 267 270 274 279 271 267 270 243 233 225
315 322 325 330 332 340 342 343 350 352 352 356 359 356 2 344 355 3 3 359 355 353 353 352 351 351 353 350 351 340 323 308 288 277 274 271 267 270 268 260 245 229 220
314 318 325 326 331 339 339 342 351 353 355 358 2 3 351 356 8 9 7 6 2 360 358 359 360 359 359 359 1 356 348 336 320 307 296 286 281 272 265 249 236 223 216
307 314 323 325 331 338 335 341 349 352 357 358 1 6 8 10 12 12 13 14 14 12 8 6 9 8 4 3 3 5 4 0 353 340 320 299 282 264 246 228 214 208 207
299 304 316 322 326 332 334 341 348 351 355 360 2 3 7 10 12 14 14 16 18 19 21 21 21 20 16 12 13 15 15 13 10 5 356 346 309 224 204 196 193 189 189
290 296 306 314 321 327 329 337 344 346 350 355 358 2 4 6 9 12 13 15 17 20 21 23 26 26 28 24 22 26 25 23 23 26 23 29 79 119 146 157 163 167 168
283 288 296 304 310 316 319 326 332 336 341 346 350 354 358 1 4 8 12 14 15 15 19 22 24 28 26 31 30 30 33 36 41 46 53 67 86 100 116 130 139 146 153
282 285 289 294 299 305 308 314 321 326 330 335 338 343 348 350 354 359 4 9 12 14 17 21 24 27 33 30 31 36 36 41 47 54 63 74 85 95 106 115 125 132 139
Wind_Speed_850mb
32 36 39 41 43 44 45 45 46 48 50 52 55 58 60 64 68 74 75 76 78 78 74 71 72 67 69 70 69 68 67 67 85 92 94 96 98 95 90 88 88 91 91
37 42 47 51 54 58 61 63 66 71 71 73 74 75 74 73 72 74 79 82 88 90 90 86 84 78 77 75 73 74 74 71 76 90 84 87 95 92 90 90 89 91 97
40 44 48 51 56 60 66 70 74 79 83 86 88 90 90 90 93 93 92 91 90 92 95 100 102 96 91 86 81 79 76 77 79 84 92 81 84 86 86 86 90 91 92
37 42 48 55 61 65 72 80 86 90 95 98 101 103 104 106 107 107 108 109 109 105 100 99 103 107 110 102 93 88 83 82 82 87 92 89 81 81 80 84 89 92 96
44 48 56 62 66 71 77 85 91 94 99 104 108 111 113 114 116 103 94 92 99 107 114 115 113 111 110 111 106 104 95 92 91 92 95 93 84 68 78 79 82 85 98
45 51 62 67 73 79 83 88 94 98 101 105 109 111 115 114 114 86 79 83 88 90 99 107 106 107 117 116 113 89 75 80 83 83 92 96 100 83 72 72 77 81 93
54 64 67 70 76 82 87 93 99 103 108 111 112 112 115 115 111 102 83 83 93 103 104 98 98 100 97 95 94 87 85 83 82 87 88 93 100 100 83 73 76 83 93
59 62 67 75 82 88 94 99 103 106 108 111 113 111 111 109 97 84 75 78 88 99 105 107 99 97 92 93 95 97 101 108 106 95 95 111 112 112 99 95 84 84 91
61 68 74 79 86 90 94 100 104 109 109 109 105 101 95 93 82 76 69 73 80 85 87 89 89 96 98 97 92 93 98 111 111 102 98 101 105 102 93 86 81 77 84
65 70 75 80 84 90 95 100 102 103 103 98 92 85 80 81 72 67 59 66 76 79 79 78 75 74 73 73 83 100 107 112 103 106 114 108 102 102 100 96 93 86 82
68 72 76 77 83 87 94 95 95 92 89 87 86 81 77 72 67 61 55 60 70 79 84 84 79 74 73 72 73 85 93 89 88 91 98 98 97 98 100 103 107 98 91
68 72 73 76 79 83 87 87 82 80 82 83 83 83 78 73 72 68 58 59 63 74 86 89 87 74 73 74 75 80 83 86 99 102 93 84 90 97 95 88 95 102 102
68 70 73 77 79 79 79 79 78 75 77 79 81 82 87 89 87 79 69 69 67 74 83 87 82 87 87 88 87 90 91 91 94 91 87 100 101 86 93 90 90 83 81
65 66 70 75 77 73 71 71 74 73 75 76 81 93 94 84 80 79 82 87 86 85 93 99 100 93 82 87 89 89 88 88 89 92 91 98 93 108 86 86 81 80 80
61 65 68 70 70 70 67 69 70 67 62 70 77 81 87 86 84 74 79 83 86 87 86 91 91 86 88 91 92 89 87 87 83 82 80 84 100 98 96 75 74 81 80
57 60 63 66 65 65 71 73 62 62 58 58 59 60 68 71 71 74 76 74 76 78 85 88 89 88 89 88 86 84 78 79 80 78 79 89 96 93 65 70 69 73 81
54 56 57 58 59 63 67 72 78 66 59 54 50 54 57 62 64 66 67 69 68 64 68 74 78 81 83 83 82 78 77 76 73 67 64 67 54 64 67 62 71 74 83
48 49 52 53 53 56 62 65 63 64 69 68 61 59 56 57 62 61 60 57 59 54 61 67 73 75 76 78 77 77 70 62 63 60 62 68 64 52 49 60 69 75 74
45 46 48 49 47 48 55 57 56 57 59 62 65 64 59 72 64 52 48 51 59 62 64 67 66 66 69 68 59 57 53 48 51 55 56 55 55 56 58 58 68 82 79
40 42 44 44 42 43 47 49 50 52 54 58 61 62 69 73 61 61 59 57 57 58 60 63 63 61 59 58 59 54 49 44 41 46 55 59 56 53 57 56 59 69 72
38 37 37 37 36 37 41 43 45 48 51 54 55 56 49 56 64 65 64 61 58 58 58 57 58 58 57 53 47 42 38 39 36 39 42 47 50 52 49 52 55 60 64
34 33 32 33 32 32 36 37 39 42 45 49 52 51 52 55 59 62 63 63 60 56 54 54 55 56 54 51 46 40 37 32 26 22 20 20 21 24 30 36 41 47 49
32 30 28 28 29 29 31 32 35 38 41 43 47 50 52 54 55 57 58 59 60 60 59 57 59 61 55 48 42 39 37 34 30 25 20 12 4 6 14 22 29 34 35
33 31 28 27 28 28 31 32 33 35 38 41 43 45 48 50 50 50 51 54 55 56 57 59 60 60 62 61 48 42 38 33 27 24 19 12 8 8 12 17 23 26 31
34 32 30 30 29 30 31 31 33 35 36 39 41 42 43 45 47 48 48 49 50 52 54 55 56 57 59 59 62 53 43 38 33 27 22 18 18 17 19 23 26 29 32
34 34 33 32 32 33 36 35 34 35 37 38 39 39 41 43 43 44 45 47 48 49 49 49 50 51 54 57 54 54 54 48 41 36 31 28 28 28 28 29 30 33 35
Wind_Direction_850mb
350 348 345 340 336 333 329 324 320 316 314 313 312 310 309 307 307 307 306 305 303 302 301 299 296 295 293 290 290 289 286 281 277 279 280 282 280 279 276 272 266 261 257
334 332 331 330 328 326 324 322 321 319 317 316 314 312 309 306 303 301 299 298 298 297 298 295 293 291 287 285 284 284 285 284 283 284 283 282 281 282 279 275 270 264 260
313 312 311 313 311 309 309 310 310 310 309 309 308 306 305 303 301 299 297 294 291 290 289 289 290 289 286 282 280 279 279 281 281 283 284 283 281 281 280 275 272 269 263
289 292 296 301 300 298 299 302 303 304 304 304 304 303 302 301 300 299 298 296 295 291 285 281 280 281 284 284 281 278 276 276 277 279 282 283 281 280 278 276 276 271 268
294 296 299 299 295 293 292 294 296 297 298 299 299 299 299 299 299 300 300 298 295 293 292 288 282 278 275 278 283 282 281 277 273 273 276 280 279 271 270 278 276 277 275
283 291 298 296 295 296 297 297 298 299 298 298 297 297 296 295 294 292 288 285 285 285 285 285 284 284 282 279 276 275 270 272 272 272 272 271 273 272 271 271 273 271 270
290 296 299 301 301 303 304 305 306 305 304 303 301 300 298 297 296 295 292 284 276 272 274 277 280 278 278 279 278 275 272 265 260 263 265 265 269 270 272 269 267 266 269
297 302 305 307 309 310 311 311 310 308 306 305 303 302 301 300 302 299 296 288 280 274 270 271 275 275 276 276 276 275 274 277 274 267 263 263 264 268 266 269 269 267 269
306 309 312 313 313 314 314 313 312 310 308 307 306 307 306 305 307 304 300 293 289 287 287 287 283 278 276 272 273 272 271 272 272 271 267 263 262 264 261 263 259 255 256
310 313 316 317 317 317 317 315 313 311 309 309 309 310 310 309 311 308 301 297 296 297 296 293 290 287 287 282 274 272 272 272 274 274 276 272 262 258 258 253 250 247 251
314 317 318 318 318 318 317 316 315 314 312 312 313 314 314 317 320 318 304 298 295 296 297 296 293 290 286 283 278 274 274 277 278 274 270 266 264 262 257 255 250 243 243
316 318 318 319 320 320 320 322 320 317 315 316 316 317 320 324 325 322 305 300 298 295 293 292 295 294 289 285 281 277 276 275 271 270 275 270 259 255 252 248 248 249 245
317 318 320 320 324 326 328 326 321 321 319 318 319 321 324 326 325 323 308 307 298 294 295 297 294 293 291 286 281 279 275 274 277 275 268 265 268 267 255 248 245 247 244
316 319 321 324 326 331 332 325 322 325 322 321 323 322 319 315 311 310 313 315 313 308 304 301 302 297 286 285 282 276 273 271 271 272 267 262 266 261 258 240 239 244 240
317 321 323 326 330 333 331 328 327 329 319 313 309 309 310 309 311 313 311 309 308 305 304 299 296 293 290 287 284 280 277 270 264 267 267 269 255 262 251 237 241 243 240
316 319 325 329 333 334 331 330 333 331 322 311 309 308 310 309 312 313 310 309 308 307 304 299 296 292 288 284 280 276 268 261 262 265 268 264 273 240 236 234 243 248 244
316 324 328 330 333 334 335 334 334 343 343 341 332 321 320 316 316 319 318 314 309 310 305 307 307 304 296 290 283 278 271 264 266 265 266 274 277 242 241 253 255 249 229
318 325 328 330 334 338 338 338 339 342 345 349 351 345 336 331 327 326 323 323 324 332 333 328 326 322 318 307 297 285 278 271 270 266 272 273 279 276 260 260 247 238 235
317 324 327 329 336 338 340 342 345 349 348 349 353 356 357 353 339 341 348 346 345 345 345 342 342 340 342 331 321 310 300 281 266 267 270 274 279 271 267 270 243 233 225
315 322 325 330 332 340 342 343 350 352 352 356 359 356 2 344 355 3 3 359 355 353 353 352 351 351 353 350 351 340 323 308 288 277 274 271 267 270 268 260 245 229 220
314 318 325 326 331 339 339 342 351 353 355 358 2 3 351 356 8 9 7 6 2 360 358 359 360 359 359 359 1 356 348 336 320 307 296 286 281 272 265 249 236 223 216
307 314 323 325 331 338 335 341 349 352 357 358 1 6 8 10 12 12 13 14 14 12 8 6 9 8 4 3 3 5 4 0 353 340 320 299 282 264 246 228 214 208 207
299 304 316 322 326 332 334 341 348 351 355 360 2 3 7 10 12 14 14 16 18 19 21 21 21 20 16 12 13 15 15 13 10 5 356 346 309 224 204 196 193 189 189
290 296 306 314 321 327 329 337 344 346 350 355 358 2 4 6 9 12 13 15 17 20 21 23 26 26 28 24 22 26 25 23 23 26 23 29 79 119 146 157 163 167 168
283 288 296 304 310 316 319 326 332 336 341 346 350 354 358 1 4 8 12 14 15 15 19 22 24 28 26 31 30 30 33 36 41 46 53 67 86 100 116 130 139 146 153
282 285 289 294 299 305 308 314 321 326 330 335 338 343 348 350 354 359 4 9 12 14 17 21 24 27 33 30 31 36 36 41 47 54 63 74 85 95 106 115 125 132 139